| time (UTC) | temp F | wind direction | speed MPH | gust MPH | rain 1hr in | rain 24hr in | rain mn in | humidity % | barometer mb |
| 20260506230045 | 50 | 306 | 4.0 | 9.0 | 0.00 | 0.00 | 0.00 | 70 | 1023.8 |
| 20260506224549 | 50 | 263 | 4.0 | 11.0 | 0.00 | 0.00 | 0.00 | 69 | 1023.7 |
| 20260506223042 | 51 | 223 | 4.0 | 8.0 | 0.00 | 0.00 | 0.00 | 66 | 1023.6 |
| 20260506221542 | 51 | 317 | 4.0 | 8.0 | 0.00 | 0.00 | 0.00 | 63 | 1023.5 |
| 20260506220048 | 51 | 265 | 3.0 | 8.0 | 0.00 | 0.00 | 0.00 | 64 | 1023.5 |
| 20260506214539 | 51 | 200 | 3.0 | 8.0 | 0.00 | 0.00 | 0.00 | 62 | 1023.4 |
| 20260506213042 | 51 | 277 | 4.0 | 8.0 | 0.00 | 0.00 | 0.00 | 63 | 1023.5 |
| 20260506211554 | 51 | 229 | 3.0 | 8.0 | 0.00 | 0.00 | 0.00 | 62 | 1023.4 |
| 20260506210043 | 52 | 236 | 2.0 | 6.0 | 0.00 | 0.00 | 0.00 | 59 | 1023.2 |
| 20260506204542 | 51 | 300 | 2.0 | 5.0 | 0.00 | 0.00 | 0.00 | 59 | 1023.1 |
| 20260506203047 | 52 | 315 | 2.0 | 4.0 | 0.00 | 0.00 | 0.00 | 61 | 1022.9 |
| 20260506201545 | 51 | 284 | 1.0 | 4.0 | 0.00 | 0.00 | 0.00 | 59 | 1022.8 |
| 20260506200042 | 52 | 327 | 1.0 | 4.0 | 0.00 | 0.00 | 0.00 | 62 | 1022.9 |
| 20260506194546 | 52 | 287 | 0.0 | 7.0 | 0.00 | 0.00 | 0.00 | 62 | 1022.8 |
| 20260506193045 | 52 | 271 | 2.0 | 7.0 | 0.00 | 0.00 | 0.00 | 61 | 1022.8 |
| 20260506191536 | 50 | 294 | 3.0 | 7.0 | 0.00 | 0.00 | 0.00 | 64 | 1022.7 |
| 20260506190043 | 50 | 15 | 3.0 | 7.0 | 0.00 | 0.00 | 0.00 | 66 | 1022.6 |
| 20260506184543 | 50 | 331 | 1.0 | 5.0 | 0.00 | 0.00 | 0.00 | 67 | 1022.5 |
| 20260506183041 | 51 | 306 | 1.0 | 4.0 | 0.00 | 0.00 | 0.00 | 65 | 1022.4 |
| 20260506181547 | 49 | 290 | 2.0 | 4.0 | 0.00 | 0.00 | 0.00 | 67 | 1022.4 |
| 20260506180048 | 49 | 293 | 2.0 | 5.0 | 0.00 | 0.00 | 0.00 | 66 | 1022.5 |
| 20260506174542 | 49 | 297 | 1.0 | 3.0 | 0.00 | 0.00 | 0.00 | 68 | 1022.5 |
| 20260506173105 | 49 | 294 | 1.0 | 3.0 | 0.00 | 0.00 | 0.00 | 67 | 1022.4 |
| 20260506171553 | 50 | 275 | 1.0 | 5.0 | 0.00 | 0.00 | 0.00 | 68 | 1022.4 |
| 20260506170044 | 49 | 360 | 1.0 | 5.0 | 0.00 | 0.00 | 0.00 | 70 | 1022.4 |
| 20260506164539 | 48 | 274 | 1.0 | 4.0 | 0.00 | 0.00 | 0.00 | 72 | 1022.4 |
| 20260506163035 | 47 | 284 | 0.0 | 4.0 | 0.00 | 0.00 | 0.00 | 72 | 1022.4 |
| 20260506161543 | 47 | 0 | 0.0 | 3.0 | 0.00 | 0.00 | 0.00 | 72 | 1022.2 |
| 20260506160052 | 47 | 301 | 2.0 | 6.0 | 0.00 | 0.00 | 0.00 | 73 | 1022.1 |
| 20260506154544 | 46 | 342 | 3.0 | 7.0 | 0.00 | 0.00 | 0.00 | 72 | 1022.0 |
| 20260506153043 | 46 | 266 | 1.0 | 6.0 | 0.00 | 0.00 | 0.00 | 75 | 1021.9 |
| 20260506151545 | 46 | 323 | 2.0 | 4.0 | 0.00 | 0.00 | 0.00 | 75 | 1021.8 |
| 20260506150049 | 46 | 336 | 3.0 | 8.0 | 0.00 | 0.00 | 0.00 | 75 | 1021.8 |
| 20260506144545 | 46 | 289 | 3.0 | 12.0 | 0.00 | 0.00 | 0.00 | 75 | 1021.7 |
| 20260506143039 | 46 | 308 | 3.0 | 9.0 | 0.00 | 0.00 | 0.00 | 75 | 1021.5 |
| 20260506141540 | 46 | 327 | 4.0 | 10.0 | 0.00 | 0.00 | 0.00 | 75 | 1021.5 |
| 20260506140043 | 46 | 283 | 1.0 | 8.0 | 0.00 | 0.00 | 0.00 | 76 | 1021.4 |
| 20260506134547 | 46 | 0 | 1.0 | 9.0 | 0.00 | 0.00 | 0.00 | 75 | 1021.2 |
| 20260506133040 | 46 | 331 | 3.0 | 8.0 | 0.00 | 0.00 | 0.00 | 75 | 1021.0 |
| 20260506131547 | 46 | 287 | 3.0 | 7.0 | 0.00 | 0.00 | 0.00 | 76 | 1020.8 |
| 20260506130040 | 46 | 279 | 2.0 | 8.0 | 0.00 | 0.00 | 0.00 | 76 | 1020.7 |
| 20260506124535 | 46 | 5 | 1.0 | 5.0 | 0.00 | 0.00 | 0.00 | 76 | 1020.8 |
| 20260506123043 | 46 | 273 | 2.0 | 8.0 | 0.00 | 0.00 | 0.00 | 77 | 1020.7 |
| 20260506121543 | 46 | 292 | 1.0 | 3.0 | 0.00 | 0.00 | 0.00 | 79 | 1020.6 |
| 20260506120036 | 46 | 282 | 1.0 | 8.0 | 0.00 | 0.00 | 0.00 | 79 | 1020.5 |
| 20260506114539 | 46 | 0 | 0.0 | 5.0 | 0.00 | 0.00 | 0.00 | 79 | 1020.4 |
| 20260506113042 | 46 | 302 | 1.0 | 6.0 | 0.00 | 0.00 | 0.00 | 78 | 1020.2 |
| 20260506111538 | 46 | 312 | 2.0 | 8.0 | 0.00 | 0.00 | 0.00 | 78 | 1020.2 |
| 20260506110042 | 46 | 312 | 2.0 | 7.0 | 0.00 | 0.00 | 0.00 | 78 | 1020.0 |
| 20260506104536 | 46 | 311 | 3.0 | 6.0 | 0.00 | 0.00 | 0.00 | 78 | 1020.0 |
| 20260506103041 | 46 | 296 | 1.0 | 5.0 | 0.00 | 0.00 | 0.00 | 79 | 1020.0 |
| 20260506101536 | 46 | 249 | 3.0 | 5.0 | 0.00 | 0.00 | 0.00 | 80 | 1020.0 |
| 20260506100042 | 46 | 321 | 1.0 | 4.0 | 0.00 | 0.00 | 0.00 | 81 | 1020.0 |
| 20260506094554 | 45 | 0 | 1.0 | 5.0 | 0.00 | 0.00 | 0.00 | 82 | 1019.9 |
| 20260506093044 | 45 | 0 | 1.0 | 3.0 | 0.00 | 0.00 | 0.00 | 82 | 1019.7 |
| 20260506091537 | 45 | 288 | 0.0 | 3.0 | 0.00 | 0.00 | 0.00 | 82 | 1019.6 |
| 20260506090045 | 45 | 297 | 2.0 | 5.0 | 0.00 | 0.00 | 0.00 | 81 | 1019.6 |
| 20260506084611 | 45 | 326 | 1.0 | 4.0 | 0.00 | 0.00 | 0.00 | 80 | 1019.6 |
| 20260506083046 | 46 | 317 | 1.0 | 4.0 | 0.00 | 0.00 | 0.00 | 79 | 1019.6 |
| 20260506081540 | 46 | 329 | 2.0 | 6.0 | 0.00 | 0.00 | 0.00 | 77 | 1019.5 |
| 20260506073043 | 46 | 297 | 1.0 | 4.0 | 0.00 | 0.00 | 0.00 | 75 | 1019.1 |
| 20260506071545 | 46 | 5 | 1.0 | 7.0 | 0.00 | 0.00 | 0.00 | 74 | 1018.9 |
| 20260506061545 | 47 | 266 | 3.0 | 10.0 | 0.00 | 0.00 | 0.00 | 72 | 1019.0 |
| 20260506044536 | 49 | 314 | 3.0 | 11.0 | 0.00 | 0.00 | 0.00 | 69 | 1018.2 |
| 20260506043043 | 50 | 272 | 3.0 | 11.0 | 0.00 | 0.00 | 0.00 | 67 | 1017.9 |
| 20260506041537 | 50 | 299 | 3.0 | 11.0 | 0.00 | 0.00 | 0.00 | 67 | 1017.8 |
| 20260506040037 | 51 | 298 | 3.0 | 8.0 | 0.00 | 0.00 | 0.00 | 65 | 1017.4 |
| 20260506034543 | 52 | 350 | 2.0 | 10.0 | 0.00 | 0.00 | 0.00 | 65 | 1017.0 |
| 20260506033042 | 53 | 323 | 1.0 | 7.0 | 0.00 | 0.00 | 0.00 | 61 | 1016.8 |
| 20260506031537 | 54 | 267 | 2.0 | 6.0 | 0.00 | 0.00 | 0.00 | 60 | 1016.7 |
| 20260506030038 | 55 | 269 | 2.0 | 5.0 | 0.00 | 0.00 | 0.00 | 59 | 1016.5 |
| 20260506024545 | 56 | 202 | 1.0 | 8.0 | 0.00 | 0.00 | 0.00 | 57 | 1016.4 |
| 20260506023044 | 56 | 271 | 1.0 | 9.0 | 0.00 | 0.00 | 0.00 | 54 | 1016.2 |
| 20260506021541 | 57 | 232 | 3.0 | 5.0 | 0.00 | 0.00 | 0.00 | 54 | 1016.2 |
| 20260506020039 | 57 | 314 | 3.0 | 10.0 | 0.00 | 0.00 | 0.00 | 56 | 1016.2 |
| 20260506014538 | 58 | 233 | 3.0 | 7.0 | 0.00 | 0.00 | 0.00 | 54 | 1015.9 |
| 20260506013043 | 59 | 214 | 3.0 | 8.0 | 0.00 | 0.00 | 0.00 | 53 | 1015.7 |
| 20260506011540 | 60 | 240 | 2.0 | 8.0 | 0.00 | 0.00 | 0.00 | 55 | 1015.7 |
| 20260506010038 | 59 | 196 | 3.0 | 8.0 | 0.00 | 0.00 | 0.00 | 56 | 1015.7 |
| 20260506004537 | 59 | 221 | 4.0 | 10.0 | 0.00 | 0.00 | 0.00 | 57 | 1015.7 |
| 20260506003038 | 59 | 257 | 4.0 | 11.0 | 0.00 | 0.00 | 0.00 | 57 | 1015.7 |
| 20260506001542 | 61 | 293 | 5.0 | 9.0 | 0.00 | 0.00 | 0.00 | 54 | 1015.7 |
| 20260506000042 | 62 | 269 | 3.0 | 9.0 | 0.00 | 0.00 | 0.00 | 54 | 1015.6 |
| 20260505234544 | 64 | 341 | 2.0 | 4.0 | 0.00 | 0.00 | 0.00 | 52 | 1015.4 |
| 20260505233042 | 60 | 188 | 4.0 | 10.0 | 0.00 | 0.00 | 0.00 | 59 | 1015.4 |
| 20260505231544 | 62 | 193 | 6.0 | 10.0 | 0.00 | 0.00 | 0.00 | 56 | 1015.4 |